Location: Bremen
(53.0796°N, 8.8241°E)
Time: 03:00:15
(UTC+01:00)

Amateur Radio Satellites - All Passes

Search period start: 25 November 2017 02:30
Search period end: 26 November 2017 02:30
Location: Bremen, 53.0796°N, 8.8241°E

Satellite Date Start Highest point End Downlink Frequencies (MHz)
Time Altitude Azimuth
CUBESAT XI-V 25 Nov 02:32:45 02:36:38 28° 61° (ENE) 02:40:33 437.345
ISS 25 Nov 02:34:33 02:35:48 12° 220° (SW) 02:37:05 437.550
ITUPSAT 1 25 Nov 02:35:01 02:39:47 74° 72° (ENE) 02:44:34 437.325
DX 1 25 Nov 02:38:05 02:40:39 15° 272° (W) 02:43:12 434.975-435.025
PCSat 25 Nov 02:40:10 02:44:47 27° 334° (NNW) 02:49:25 145.827
ITAMSAT 1 25 Nov 02:40:56 02:42:41 11° 83° (E) 02:44:24 435.822/435.867
SO-50 25 Nov 02:45:31 02:49:11 23° 16° (NNE) 02:52:55 436.795
M-CUBED/EXP-1 PRIME 25 Nov 02:53:47 02:57:43 28° 100° (E) 03:01:41 437.505
RS-15 25 Nov 02:55:37 03:07:40 82° 231° (SW) 03:19:02 29.354- 29.394
AO-85 25 Nov 02:59:26 03:01:26 14° 112° (ESE) 03:03:30 145.980
BEESAT 2 25 Nov 03:02:04 03:05:43 33° 122° (ESE) 03:09:23 435.950
UKube-1 25 Nov 03:13:17 03:14:22 11° 275° (W) 03:15:28 .
Gurwin Techsat 1B 25 Nov 03:14:05 03:19:16 54° 294° (WNW) 03:24:26 435.225
BEESAT 3 25 Nov 03:17:52 03:21:52 73° 315° (NW) 03:25:54 437.485
YUBILEINY 25 Nov 03:25:23 03:30:02 16° 67° (ENE) 03:34:41 435.215
KKS-1 25 Nov 03:33:19 03:37:08 28° 61° (ENE) 03:40:56 437.445
AO-91 25 Nov 03:34:08 03:37:49 23° 302° (WNW) 03:41:12 145.960
STARS 25 Nov 03:46:50 03:49:53 18° 56° (NE) 03:52:56 437.465
MOZHAYETS 4 25 Nov 03:48:16 03:51:53 23° 269° (W) 03:55:31
Oscar 19 25 Nov 03:56:51 04:00:45 22° 305° (NW) 04:04:38 437.125/150
BEESAT 25 Nov 04:01:43 04:05:29 23° 268° (W) 04:09:16 436.000
AO-7 25 Nov 04:04:29 04:12:47 63° 105° (ESE) 04:21:04 .
CUBESAT XI-V 25 Nov 04:09:20 04:13:48 49° 261° (W) 04:18:20 437.345
ITUPSAT 1 25 Nov 04:14:48 04:18:09 19° 271° (W) 04:21:29 437.325
ITAMSAT 1 25 Nov 04:17:58 04:23:11 65° 103° (ESE) 04:28:21 435.822/435.867
SO-50 25 Nov 04:25:59 04:30:32 56° 39° (NE) 04:35:09 436.795
PCSat 25 Nov 04:26:11 04:29:58 19° 360° (N) 04:33:44 145.827
M-CUBED/EXP-1 PRIME 25 Nov 04:27:51 04:32:15 51° 298° (WNW) 04:36:45 437.505
AO-85 25 Nov 04:37:09 04:41:07 86° 129° (SE) 04:45:20 145.980
BEESAT 2 25 Nov 04:39:26 04:43:21 46° 322° (NW) 04:47:18 435.950
FO-29 25 Nov 04:43:10 04:45:37 12° 28° (NNE) 04:48:06 435.910
DOVE 4 25 Nov 04:54:35 04:59:21 35° 94° (E) 05:03:53 437.250
Gurwin Techsat 1B 25 Nov 04:55:47 04:58:09 13° 314° (NW) 05:00:32 435.225
BEESAT 3 25 Nov 04:56:51 05:00:02 22° 338° (NNW) 05:03:13 437.485
STRAND 1 25 Nov 05:06:45 05:10:11 18° 52° (NE) 05:13:36 437.568
RS-15 25 Nov 05:08:57 05:18:21 29° 258° (WSW) 05:27:24 29.354- 29.394
KKS-1 25 Nov 05:09:10 05:13:30 47° 260° (W) 05:17:51 437.445
YUBILEINY 25 Nov 05:16:21 05:24:53 60° 92° (E) 05:33:31 435.215
STARS 25 Nov 05:21:17 05:25:43 77° 255° (WSW) 05:30:11 437.465
XW-2C 25 Nov 05:33:57 05:36:21 16° 89° (E) 05:38:46 145.795 - 145.815
HO-68 25 Nov 05:37:03 05:39:10 11° 78° (ENE) 05:41:15 435.675
XW-2F 25 Nov 05:40:35 05:43:10 17° 90° (E) 05:45:45 145.980 - 146.000
LilacSat-2 25 Nov 05:40:51 05:43:44 20° 91° (E) 05:46:36 437.200
AO-7 25 Nov 05:57:36 06:05:21 45° 307° (NW) 06:13:06 .
ITAMSAT 1 25 Nov 05:58:00 06:02:17 26° 303° (WNW) 06:06:31 435.822/435.867
KAITUO 1B 25 Nov 06:00:52 06:03:52 22° 93° (E) 06:06:50 145.475/437.950
M-CUBED/EXP-1 PRIME 25 Nov 06:04:00 06:05:45 12° 317° (NW) 06:07:32 437.505
SO-50 25 Nov 06:06:43 06:10:50 32° 239° (WSW) 06:15:00 436.795
PCSat 25 Nov 06:10:33 06:15:08 27° 25° (NNE) 06:19:44 145.827
AO-85 25 Nov 06:18:34 06:22:02 26° 336° (NNW) 06:25:43 145.980
BEESAT 2 25 Nov 06:19:05 06:21:59 18° 345° (NNW) 06:24:53 435.950
CUTE-I 25 Nov 06:19:33 06:24:34 38° 96° (E) 06:29:31 437.470
FO-29 25 Nov 06:22:09 06:28:19 31° 52° (NE) 06:34:52 435.910
XW-2D 25 Nov 06:26:13 06:29:58 53° 100° (E) 06:33:43 145.860 - 145.880
DOVE 4 25 Nov 06:32:12 06:37:07 43° 294° (WNW) 06:41:48 437.250
BEESAT 3 25 Nov 06:36:27 06:38:53 15° 1° (N) 06:41:18 437.485
NUDT-PHONESAT 25 Nov 06:37:42 06:41:19 48° 99° (E) 06:44:56 437.300
XW-2B 25 Nov 06:41:11 06:45:00 73° 102° (ESE) 06:48:50 145.730 - 145.750
STRAND 1 25 Nov 06:43:30 06:48:40 84° 73° (ENE) 06:53:51 437.568
STARS 25 Nov 07:01:22 07:02:50 11° 275° (W) 07:04:18 437.465
XW-2C 25 Nov 07:07:08 07:10:55 60° 288° (WNW) 07:14:40 145.795 - 145.815
CUTE 1.7 + AOD 2 25 Nov 07:09:08 07:13:11 40° 97° (E) 07:17:13 437.475
CUBEBUG 2 25 Nov 07:13:17 07:16:52 27° 93° (E) 07:20:24 437.445
XW-2F 25 Nov 07:13:51 07:17:35 54° 289° (WNW) 07:21:18 145.980 - 146.000
YUBILEINY 25 Nov 07:13:53 07:22:07 43° 296° (WNW) 07:30:28 435.215
LilacSat-2 25 Nov 07:14:32 07:18:15 47° 290° (WNW) 07:21:57 437.200
HO-68 25 Nov 07:21:40 07:28:42 52° 100° (E) 07:35:40 435.675
AAUSAT CUBESAT 2 25 Nov 07:25:39 07:28:40 19° 90° (E) 07:31:41 437.432
UNISAT 6 25 Nov 07:28:52 07:31:06 14° 54° (NE) 07:33:20 437.425
SEEDS 25 Nov 07:31:16 07:35:20 42° 98° (E) 07:39:23 437.485
TIGRISAT 25 Nov 07:32:04 07:34:16 14° 53° (NE) 07:36:27 435.000
KAITUO 1B 25 Nov 07:34:25 07:38:00 41° 291° (WNW) 07:41:34 145.475/437.950
ZACube-1 25 Nov 07:42:10 07:45:06 18° 90° (E) 07:48:00 437.345
AO-7 25 Nov 07:51:03 07:56:10 18° 332° (NNW) 08:01:17 .
PCSat 25 Nov 07:53:55 07:59:23 77° 49° (NE) 08:04:49 145.827
BEESAT 2 25 Nov 07:58:25 08:01:05 17° 9° (N) 08:03:46 435.950
CUTE-I 25 Nov 07:59:37 08:04:42 43° 296° (WNW) 08:09:43 437.470
AO-85 25 Nov 08:00:50 08:03:47 18° 1° (N) 08:06:52 145.980
UWE-3 25 Nov 08:00:53 08:04:54 45° 99° (E) 08:08:53 435.000/436.395/437.385
XW-2D 25 Nov 08:01:04 08:03:50 19° 299° (WNW) 08:06:36 145.860 - 145.880
FO-29 25 Nov 08:05:30 08:12:35 83° 255° (WSW) 08:20:24 435.910
NUDT-PHONESAT 25 Nov 08:12:08 08:14:54 20° 298° (WNW) 08:17:39 437.300
DOVE 4 25 Nov 08:12:49 08:13:29 10° 316° (NW) 08:14:08 437.250
BEESAT 3 25 Nov 08:14:22 08:17:40 24° 25° (NNE) 08:20:56 437.485
XW-2B 25 Nov 08:16:27 08:18:43 15° 302° (WNW) 08:20:57 145.730 - 145.750
STRAND 1 25 Nov 08:25:02 08:28:31 18° 272° (W) 08:31:59 437.568
XW-2A 25 Nov 08:26:52 08:30:15 81° 104° (ESE) 08:33:38 145.665 - 145.685
AO-73 25 Nov 08:29:49 08:33:49 43° 98° (E) 08:37:49 145.935
Oscar 11 25 Nov 08:41:20 08:45:27 41° 98° (E) 08:49:33 .
PRISM 25 Nov 08:43:38 08:46:54 23° 60° (ENE) 08:50:11 437.425
CUTE 1.7 + AOD 2 25 Nov 08:45:12 08:48:55 29° 296° (WNW) 08:52:37 437.475
CUBEBUG 2 25 Nov 08:49:43 08:53:38 39° 293° (WNW) 08:57:29 437.445
DELFI C3 25 Nov 08:51:55 08:53:52 13° 87° (E) 08:55:48 145.870
AAUSAT CUBESAT 2 25 Nov 09:00:21 09:04:29 58° 289° (WNW) 09:08:36 437.432
UNISAT 6 25 Nov 09:02:38 09:07:09 76° 73° (ENE) 09:11:33 437.425
Max Valier Satellite 25 Nov 09:04:13 09:05:26 11° 87° (E) 09:06:39 145.860
TIGRISAT 25 Nov 09:05:47 09:10:16 75° 74° (ENE) 09:14:41 435.000
SEEDS 25 Nov 09:07:15 09:10:52 28° 297° (WNW) 09:14:29 437.485
HO-68 25 Nov 09:09:38 09:16:24 45° 302° (WNW) 09:23:07 435.675
YUBILEINY 25 Nov 09:17:39 09:22:03 14° 325° (NW) 09:26:29 435.215
ZACube-1 25 Nov 09:17:39 09:21:45 59° 289° (WNW) 09:25:52 437.345
EO-79 25 Nov 09:35:45 09:37:27 12° 52° (NE) 09:39:08 145.935-145.965
BEESAT 2 25 Nov 09:36:12 09:39:55 33° 32° (NNE) 09:43:36 435.950
NANOSAT C BR1 25 Nov 09:36:30 09:37:46 11° 51° (NE) 09:39:02 145.865
UWE-3 25 Nov 09:37:47 09:41:10 25° 298° (WNW) 09:44:33 435.000/436.395/437.385
PCSat 25 Nov 09:37:58 09:42:16 24° 250° (WSW) 09:46:34 145.827
AO-85 25 Nov 09:41:43 09:45:31 27° 25° (NNE) 09:49:33 145.980
CUTE-I 25 Nov 09:42:09 09:43:28 11° 318° (NW) 09:44:47 437.470
AO-7 25 Nov 09:43:04 09:45:44 12° 360° (N) 09:48:25 .
POLYITAN 1 25 Nov 09:51:15 09:53:50 16° 56° (NE) 09:56:25 437.675
BEESAT 3 25 Nov 09:51:43 09:55:43 88° 45° (NE) 09:59:38 437.485
FO-29 25 Nov 09:53:29 09:58:50 22° 278° (W) 10:04:33 435.910
XW-2A 25 Nov 10:01:14 10:02:26 12° 302° (WNW) 10:03:39 145.665 - 145.685
AIST 2D 25 Nov 10:06:25 10:09:39 38° 69° (ENE) 10:12:56 435.315
AO-73 25 Nov 10:06:28 10:09:53 25° 298° (WNW) 10:13:19 145.935
QB50P2 25 Nov 10:13:47 10:17:17 26° 62° (ENE) 10:20:47 145.880/145.840
Oscar 11 25 Nov 10:17:43 10:21:28 29° 297° (WNW) 10:25:13 .
PRISM 25 Nov 10:17:49 10:21:53 52° 259° (W) 10:25:59 437.425
EO-88 25 Nov 10:24:08 10:27:44 53° 101° (E) 10:31:20 145.990 - 145.960
DELFI C3 25 Nov 10:25:08 10:29:09 80° 287° (WNW) 10:33:09 145.870
ESTCUBE 1 25 Nov 10:34:51 10:36:30 12° 85° (E) 10:38:08 437.505/2401.250
LO-87 25 Nov 10:35:57 10:37:20 12° 87° (E) 10:38:43 145.935 - 145.965
Max Valier Satellite 25 Nov 10:36:05 10:39:46 81° 286° (WNW) 10:43:28 145.860
AAUSAT CUBESAT 2 25 Nov 10:38:26 10:39:04 10° 309° (NW) 10:39:42 437.432
UNISAT 6 25 Nov 10:41:34 10:44:22 16° 272° (W) 10:47:09 437.425
TIGRISAT 25 Nov 10:44:38 10:47:28 16° 272° (W) 10:50:16 435.000
DUCHIFAT 1 25 Nov 10:55:34 10:59:33 43° 67° (ENE) 11:03:32 145.980
ZACube-1 25 Nov 10:56:44 10:57:13 10° 309° (NW) 10:57:43 437.345
HO-68 25 Nov 10:58:36 11:02:28 16° 325° (NW) 11:06:20 435.675
EO-79 25 Nov 11:08:15 11:12:28 70° 72° (ENE) 11:16:41 145.935-145.965
NANOSAT C BR1 25 Nov 11:08:30 11:12:40 63° 72° (ENE) 11:16:51 145.865
BEESAT 2 25 Nov 11:13:53 11:17:50 53° 233° (SW) 11:21:44 435.950
AO-85 25 Nov 11:21:55 11:26:29 85° 47° (NE) 11:31:25 145.980
Gurwin Techsat 1B 25 Nov 11:24:00 11:27:33 18° 51° (NE) 11:31:06 435.225
AO-91 25 Nov 11:24:05 11:28:00 21° 56° (ENE) 11:31:50 145.960
POLYITAN 1 25 Nov 11:24:49 11:29:04 83° 255° (WSW) 11:33:19 437.675
AO-7 25 Nov 11:30:16 11:35:18 18° 27° (NNE) 11:40:20 .
BEESAT 3 25 Nov 11:30:24 11:32:41 15° 246° (WSW) 11:34:56 437.485
BUGSAT 1 25 Nov 11:30:58 11:34:33 29° 64° (ENE) 11:38:08 437.445
AIST 2D 25 Nov 11:40:22 11:42:59 20° 268° (W) 11:45:37 435.315
QB50P2 25 Nov 11:48:48 11:52:53 45° 261° (W) 11:56:58 145.880/145.840
EO-88 25 Nov 11:58:31 12:01:03 18° 299° (WNW) 12:03:34 145.990 - 145.960
Oscar 19 25 Nov 12:01:07 12:05:49 38° 63° (ENE) 12:10:33 437.125/150
DELFI C3 25 Nov 12:01:30 12:03:14 13° 306° (NW) 12:04:57 145.870
O/OREOS (USA 219) 25 Nov 12:03:48 12:06:43 17° 100° (E) 12:09:38 437.305
LO-87 25 Nov 12:07:40 12:11:13 71° 286° (WNW) 12:14:43 145.935 - 145.965
ESTCUBE 1 25 Nov 12:09:31 12:14:05 77° 103° (ESE) 12:18:38 437.505/2401.250
VELOX 1 25 Nov 12:11:05 12:14:04 17° 89° (E) 12:17:00 145.980
Max Valier Satellite 25 Nov 12:11:51 12:12:58 11° 305° (NW) 12:14:05 145.860
M-CUBED/EXP-1 PRIME 25 Nov 12:12:40 12:14:53 15° 46° (NE) 12:17:11 437.505
DUCHIFAT 1 25 Nov 12:31:52 12:35:22 25° 266° (W) 12:38:54 145.980
SPROUT 25 Nov 12:33:14 12:37:14 38° 97° (E) 12:41:12 437.525
NANOSAT C BR1 25 Nov 12:45:54 12:48:47 18° 270° (W) 12:51:41 145.865
EO-79 25 Nov 12:46:00 12:48:41 16° 271° (W) 12:51:23 145.935-145.965
AO-91 25 Nov 12:58:25 13:03:52 88° 256° (WSW) 13:09:08 145.960
Gurwin Techsat 1B 25 Nov 13:01:26 13:06:45 81° 73° (ENE) 13:12:07 435.225
AO-85 25 Nov 13:03:02 13:06:28 20° 244° (WSW) 13:10:05 145.980
POLYITAN 1 25 Nov 13:04:05 13:05:32 12° 275° (W) 13:07:00 437.675
BUGSAT 1 25 Nov 13:05:56 13:09:49 38° 262° (W) 13:13:42 437.445
UKube-1 25 Nov 13:15:46 13:17:27 12° 86° (E) 13:19:08 .
AO-7 25 Nov 13:18:25 13:26:04 43° 52° (NE) 13:33:45 .
YUBILEINY 25 Nov 13:22:31 13:27:01 14° 36° (NE) 13:31:30 435.215
Oscar 19 25 Nov 13:40:21 13:45:09 40° 263° (W) 13:49:59 437.125/150
O/OREOS (USA 219) 25 Nov 13:40:55 13:45:33 81° 301° (WNW) 13:50:11 437.305
M-CUBED/EXP-1 PRIME 25 Nov 13:44:46 13:48:34 80° 67° (ENE) 13:52:43 437.505
VELOX 1 25 Nov 13:46:32 13:51:01 72° 288° (WNW) 13:55:25 145.980
ESTCUBE 1 25 Nov 13:47:13 13:50:23 19° 304° (WNW) 13:53:33 437.505/2401.250
ITAMSAT 1 25 Nov 14:03:26 14:08:08 35° 61° (ENE) 14:12:51 435.822/435.867
50 SAT 25 Nov 14:08:04 14:11:16 59° 102° (ESE) 14:14:26 437.505
SPROUT 25 Nov 14:09:20 14:13:03 30° 296° (WNW) 14:16:44 437.525
NO-84 25 Nov 14:13:25 14:16:20 22° 136° (SE) 14:19:26 435.350 FM
DX 1 25 Nov 14:17:28 14:21:51 63° 102° (ESE) 14:26:12 434.975-435.025
DOVE 4 25 Nov 14:30:26 14:33:23 15° 50° (NE) 14:36:21 437.250
ITUPSAT 1 25 Nov 14:31:11 14:32:56 12° 84° (E) 14:34:40 437.325
AO-91 25 Nov 14:37:24 14:40:56 18° 274° (W) 14:44:26 145.960
Gurwin Techsat 1B 25 Nov 14:43:35 14:47:22 19° 272° (W) 14:51:10 435.225
UKube-1 25 Nov 14:49:48 14:54:11 83° 105° (ESE) 14:58:31 .
AO-7 25 Nov 15:10:23 15:18:36 64° 255° (WSW) 15:26:53 .
YUBILEINY 25 Nov 15:18:32 15:26:55 43° 64° (ENE) 15:35:13 435.215
M-CUBED/EXP-1 PRIME 25 Nov 15:21:41 15:23:37 13° 268° (W) 15:25:37 437.505
O/OREOS (USA 219) 25 Nov 15:22:24 15:25:42 19° 322° (NW) 15:29:00 437.305
VELOX 1 25 Nov 15:24:32 15:26:41 13° 308° (NW) 15:28:51 145.980
MOZHAYETS 4 25 Nov 15:35:30 15:40:00 54° 100° (E) 15:44:30
50 SAT 25 Nov 15:41:16 15:42:56 13° 301° (WNW) 15:44:36 437.505
ITAMSAT 1 25 Nov 15:42:28 15:47:30 46° 261° (W) 15:52:34 435.822/435.867
NO-84 25 Nov 15:49:24 15:53:12 78° 158° (SSE) 15:57:17 435.350 FM
BEESAT 25 Nov 15:53:58 15:58:40 58° 101° (ESE) 16:03:22 436.000
DX 1 25 Nov 15:54:21 15:57:39 21° 302° (WNW) 16:00:57 434.975-435.025
XW-2B 25 Nov 15:56:32 15:58:00 12° 55° (NE) 15:59:27 145.730 - 145.750
CUBESAT XI-V 25 Nov 15:59:29 16:03:32 28° 93° (E) 16:07:33 437.345
DOVE 4 25 Nov 16:04:57 16:10:06 65° 71° (ENE) 16:15:23 437.250
ITUPSAT 1 25 Nov 16:06:50 16:11:37 73° 104° (ESE) 16:16:23 437.325
CUTE-I 25 Nov 16:09:12 16:13:21 23° 55° (NE) 16:17:30 437.470
HO-68 25 Nov 16:11:33 16:16:47 22° 44° (NE) 16:22:02 435.675
XW-2C 25 Nov 16:20:54 16:23:39 19° 61° (ENE) 16:26:24 145.795 - 145.815
UKube-1 25 Nov 16:26:52 16:29:39 17° 305° (NW) 16:32:25 .
XW-2F 25 Nov 16:27:03 16:29:52 21° 62° (ENE) 16:32:43 145.980 - 146.000
LilacSat-2 25 Nov 16:28:25 16:31:29 24° 63° (ENE) 16:34:34 437.200
CUTE 1.7 + AOD 2 25 Nov 16:35:29 16:36:25 11° 51° (NE) 16:37:22 437.475
KAITUO 1B 25 Nov 16:46:24 16:49:27 25° 64° (ENE) 16:52:33 145.475/437.950
KKS-1 25 Nov 16:54:06 16:57:35 22° 92° (E) 17:01:03 437.445
SEEDS 25 Nov 16:56:32 16:57:37 11° 52° (NE) 16:58:42 437.485
STARS 25 Nov 17:05:57 17:07:56 13° 86° (E) 17:09:54 437.465
AO-7 25 Nov 17:08:19 17:13:08 16° 278° (W) 17:18:01 .
XW-2D 25 Nov 17:12:50 17:16:32 61° 72° (ENE) 17:20:16 145.860 - 145.880
MOZHAYETS 4 25 Nov 17:13:11 17:16:53 25° 300° (WNW) 17:20:36
YUBILEINY 25 Nov 17:15:30 17:24:08 60° 269° (W) 17:32:44 435.215
NUDT-PHONESAT 25 Nov 17:22:05 17:25:38 53° 71° (ENE) 17:29:14 437.300
RS-15 25 Nov 17:26:35 17:37:07 36° 106° (ESE) 17:47:33 29.354- 29.394
NO-84 25 Nov 17:26:45 17:30:41 65° 359° (N) 17:34:52 435.350 FM
XW-2B 25 Nov 17:27:47 17:31:32 85° 75° (ENE) 17:35:20 145.730 - 145.750
UWE-3 25 Nov 17:29:46 17:31:50 13° 54° (NE) 17:33:52 435.000/436.395/437.385
BEESAT 25 Nov 17:32:16 17:36:09 25° 302° (WNW) 17:39:59 436.000
CUBESAT XI-V 25 Nov 17:36:36 17:41:06 48° 292° (WNW) 17:45:37 437.345
DOVE 4 25 Nov 17:44:00 17:48:12 24° 271° (W) 17:52:31 437.250
ITUPSAT 1 25 Nov 17:45:27 17:49:00 21° 304° (NW) 17:52:31 437.325
CUTE-I 25 Nov 17:47:29 17:52:52 79° 255° (WSW) 17:58:18 437.470
XW-2C 25 Nov 17:53:53 17:57:31 50° 260° (W) 18:01:13 145.795 - 145.815
HO-68 25 Nov 17:56:17 18:03:26 71° 66° (ENE) 18:10:37 435.675
AO-73 25 Nov 17:57:48 17:59:28 12° 53° (NE) 18:01:07 145.935
XW-2F 25 Nov 18:00:08 18:03:43 46° 261° (W) 18:07:21 145.980 - 146.000
LilacSat-2 25 Nov 18:02:03 18:05:35 39° 262° (W) 18:09:11 437.200
CUTE 1.7 + AOD 2 25 Nov 18:07:15 18:11:24 60° 71° (ENE) 18:15:35 437.475
Oscar 11 25 Nov 18:08:58 18:10:32 12° 52° (NE) 18:12:06 .
CUBEBUG 2 25 Nov 18:16:37 18:20:56 48° 69° (ENE) 18:25:07 437.445
KAITUO 1B 25 Nov 18:19:53 18:23:18 35° 263° (W) 18:26:47 145.475/437.950
AAUSAT CUBESAT 2 25 Nov 18:21:10 18:24:41 27° 63° (ENE) 18:28:14 437.432
SEEDS 25 Nov 18:28:20 18:32:28 62° 72° (ENE) 18:36:39 437.485
KKS-1 25 Nov 18:30:05 18:34:29 56° 291° (WNW) 18:38:50 437.445
STARS 25 Nov 18:40:32 18:44:58 87° 105° (ESE) 18:49:21 437.465
ZACube-1 25 Nov 18:43:23 18:47:07 30° 65° (ENE) 18:50:48 437.345
STRAND 1 25 Nov 18:48:35 18:52:06 18° 88° (E) 18:55:36 437.568
XW-2D 25 Nov 18:48:53 18:51:05 15° 271° (W) 18:53:20 145.860 - 145.880
NUDT-PHONESAT 25 Nov 18:57:25 18:59:48 16° 270° (W) 19:02:12 437.300
XW-2A 25 Nov 19:03:14 19:06:32 71° 74° (ENE) 19:09:53 145.665 - 145.685
UWE-3 25 Nov 19:03:17 19:07:38 78° 75° (ENE) 19:11:54 435.000/436.395/437.385
NO-84 25 Nov 19:04:08 19:08:14 88° 205° (SSW) 19:12:30 435.350 FM
XW-2B 25 Nov 19:05:08 19:06:17 11° 274° (W) 19:07:27 145.730 - 145.750
FO-29 25 Nov 19:10:05 19:14:31 16° 77° (ENE) 19:18:48 435.910
YUBILEINY 25 Nov 19:14:22 19:18:59 16° 293° (WNW) 19:23:36 435.215
CUBESAT XI-V 25 Nov 19:17:14 19:17:26 10° 313° (NW) 19:17:36 437.345
AO-73 25 Nov 19:30:48 19:35:00 73° 73° (ENE) 19:39:10 145.935
CUTE-I 25 Nov 19:30:50 19:33:49 15° 275° (W) 19:36:49 437.470
RS-15 25 Nov 19:35:57 19:48:21 89° 131° (SE) 20:00:34 29.354- 29.394
Oscar 11 25 Nov 19:41:37 19:45:52 66° 73° (ENE) 19:50:10 .
DELFI C3 25 Nov 19:42:30 19:45:18 19° 59° (ENE) 19:48:07 145.870
CUTE 1.7 + AOD 2 25 Nov 19:44:38 19:47:37 19° 271° (W) 19:50:38 437.475
HO-68 25 Nov 19:45:29 19:51:45 31° 268° (W) 19:58:04 435.675
Max Valier Satellite 25 Nov 19:48:34 19:50:31 14° 58° (ENE) 19:52:29 145.860
nSIGHT-1 25 Nov 19:53:13 19:55:31 18° 146° (SSE) 19:57:50 .
CUBEBUG 2 25 Nov 19:54:05 19:57:46 24° 267° (W) 20:01:22 437.445
AAUSAT CUBESAT 2 25 Nov 19:56:06 20:00:00 40° 263° (W) 20:03:58 437.432
SEEDS 25 Nov 20:05:40 20:08:34 18° 271° (W) 20:11:29 437.485
KKS-1 25 Nov 20:08:51 20:10:08 11° 311° (NW) 20:11:24 437.445
STARS 25 Nov 20:17:58 20:20:44 17° 305° (NW) 20:23:28 437.465
ZACube-1 25 Nov 20:19:25 20:23:21 36° 263° (W) 20:27:14 437.345
STRAND 1 25 Nov 20:26:47 20:31:56 81° 288° (WNW) 20:37:02 437.568
O/OREOS (USA 219) 25 Nov 20:26:52 20:30:18 20° 39° (NE) 20:33:42 437.305
SO-50 25 Nov 20:27:20 20:30:24 18° 114° (ESE) 20:33:31 436.795
XW-2A 25 Nov 20:38:55 20:39:42 11° 273° (W) 20:40:29 145.665 - 145.685
NO-84 25 Nov 20:41:38 20:45:21 31° 218° (SW) 20:49:06 435.350 FM
UWE-3 25 Nov 20:42:07 20:44:37 15° 272° (W) 20:47:06 435.000/436.395/437.385
ISS 25 Nov 20:52:09 20:55:09 34° 156° (SSE) 20:58:10 437.550
FO-29 25 Nov 20:53:24 21:01:14 61° 100° (E) 21:08:33 435.910
EO-88 25 Nov 21:07:03 21:10:37 58° 72° (ENE) 21:14:13 145.990 - 145.960
AO-73 25 Nov 21:09:13 21:11:44 15° 272° (W) 21:14:14 145.935
DELFI C3 25 Nov 21:15:43 21:19:39 61° 259° (W) 21:23:39 145.870
LO-87 25 Nov 21:17:28 21:19:27 14° 58° (ENE) 21:21:26 145.935 - 145.965
Oscar 11 25 Nov 21:19:33 21:22:28 18° 271° (W) 21:25:24 .
Max Valier Satellite 25 Nov 21:20:13 21:23:51 74° 258° (WSW) 21:27:31 145.860
nSIGHT-1 25 Nov 21:28:09 21:31:17 52° 165° (SSE) 21:34:26 .
ESTCUBE 1 25 Nov 21:39:14 21:42:46 23° 59° (ENE) 21:46:21 437.505/2401.250
RS-15 25 Nov 21:50:16 22:02:16 53° 342° (NNW) 22:13:56 29.354- 29.394
PRISM 25 Nov 21:53:51 21:56:13 15° 88° (E) 21:58:33 437.425
SPROUT 25 Nov 21:59:37 22:01:01 11° 51° (NE) 22:02:25 437.525
O/OREOS (USA 219) 25 Nov 22:05:47 22:10:23 90° 258° (WSW) 22:14:55 437.305
SO-50 25 Nov 22:05:49 22:10:18 86° 311° (NW) 22:14:53 436.795
STRAND 1 25 Nov 22:07:05 22:10:25 18° 308° (NW) 22:13:43 437.568
UNISAT 6 25 Nov 22:24:35 22:28:52 72° 102° (ESE) 22:33:07 437.425
TIGRISAT 25 Nov 22:27:32 22:31:49 71° 102° (ESE) 22:36:03 435.000
ISS 25 Nov 22:28:08 22:31:23 68° 175° (S) 22:34:39 437.550
FO-29 25 Nov 22:38:42 22:45:58 43° 302° (WNW) 22:52:54 435.910
EO-88 25 Nov 22:42:27 22:44:37 15° 271° (W) 22:46:47 145.990 - 145.960
PCSat 25 Nov 22:43:26 22:47:01 18° 107° (ESE) 22:50:36 145.827
LO-87 25 Nov 22:48:48 22:52:24 70° 257° (WSW) 22:56:00 145.935 - 145.965
AIST 2D 25 Nov 22:58:17 23:01:03 21° 93° (E) 23:03:47 435.315
nSIGHT-1 25 Nov 23:04:11 23:07:23 67° 184° (S) 23:10:34 .
POLYITAN 1 25 Nov 23:05:42 23:06:40 11° 85° (E) 23:07:38 437.675
VELOX 1 25 Nov 23:13:31 23:17:30 32° 63° (ENE) 23:21:30 145.980
ESTCUBE 1 25 Nov 23:14:50 23:19:16 58° 259° (W) 23:23:44 437.505/2401.250
QB50P2 25 Nov 23:27:46 23:30:50 19° 91° (E) 23:33:52 145.880/145.840
PRISM 25 Nov 23:27:49 23:32:01 77° 286° (WNW) 23:36:09 437.425
SPROUT 25 Nov 23:31:52 23:36:05 63° 72° (ENE) 23:40:20 437.525
DX 1 25 Nov 23:44:02 23:47:12 20° 57° (ENE) 23:50:22 434.975-435.025
O/OREOS (USA 219) 25 Nov 23:46:40 23:49:05 14° 261° (W) 23:51:30 437.305
SO-50 25 Nov 23:47:28 23:51:21 27° 337° (NNW) 23:55:18 436.795
UNISAT 6 26 Nov 00:02:13 00:05:07 18° 303° (WNW) 00:08:01 437.425
ISS 26 Nov 00:04:31 00:07:43 51° 195° (SSW) 00:10:55 437.550
TIGRISAT 26 Nov 00:05:08 00:08:03 18° 303° (WNW) 00:10:58 435.000
RS-15 26 Nov 00:05:42 00:17:34 51° 15° (NNE) 00:28:53 29.354- 29.394
DUCHIFAT 1 26 Nov 00:08:40 00:12:27 32° 96° (E) 00:16:13 145.980
UKube-1 26 Nov 00:14:58 00:18:25 24° 59° (ENE) 00:21:54 .
NANOSAT C BR1 26 Nov 00:22:02 00:26:07 49° 100° (E) 00:30:11 145.865
EO-79 26 Nov 00:22:14 00:26:23 55° 101° (E) 00:30:28 145.935-145.965
PCSat 26 Nov 00:24:13 00:29:39 84° 129° (SE) 00:35:07 145.827
FO-29 26 Nov 00:24:55 00:29:04 16° 325° (NW) 00:33:10 435.910
AIST 2D 26 Nov 00:31:03 00:34:21 38° 291° (WNW) 00:37:39 435.315
POLYITAN 1 26 Nov 00:38:58 00:43:12 79° 104° (ESE) 00:47:23 437.675
50 SAT 26 Nov 00:40:13 00:43:21 51° 71° (ENE) 00:46:32 437.505
nSIGHT-1 26 Nov 00:40:26 00:43:21 32° 205° (SSW) 00:46:15 .
BUGSAT 1 26 Nov 00:41:39 00:44:37 20° 91° (E) 00:47:34 437.445
AO-91 26 Nov 00:44:46 00:46:46 13° 82° (E) 00:48:41 145.960
VELOX 1 26 Nov 00:49:43 00:53:52 38° 262° (W) 00:58:05 145.980
QB50P2 26 Nov 01:02:50 01:06:59 57° 290° (WNW) 01:11:06 145.880/145.840
PRISM 26 Nov 01:04:39 01:06:35 13° 307° (NW) 01:08:31 437.425
MOZHAYETS 4 26 Nov 01:07:53 01:11:00 19° 56° (NE) 01:14:08
SPROUT 26 Nov 01:09:25 01:12:24 18° 270° (W) 01:15:23 437.525
Gurwin Techsat 1B 26 Nov 01:12:03 01:15:57 20° 89° (E) 01:19:50 435.225
DX 1 26 Nov 01:18:34 01:22:56 70° 256° (WSW) 01:27:21 434.975-435.025
BEESAT 3 26 Nov 01:24:25 01:27:16 19° 116° (ESE) 01:30:07 437.485
BEESAT 26 Nov 01:29:47 01:33:34 24° 58° (ENE) 01:37:22 436.000
SO-50 26 Nov 01:29:50 01:33:10 20° 2° (N) 01:36:32 436.795
CUBESAT XI-V 26 Nov 01:35:25 01:36:27 11° 48° (NE) 01:37:30 437.345
ISS 26 Nov 01:41:26 01:43:43 18° 214° (SW) 01:46:00 437.550
ITUPSAT 1 26 Nov 01:42:36 01:46:41 29° 60° (ENE) 01:50:48 437.325
DUCHIFAT 1 26 Nov 01:44:22 01:48:07 33° 295° (WNW) 01:51:53 145.980
Oscar 19 26 Nov 01:45:00 01:49:58 45° 99° (E) 01:54:56 437.125/150
UKube-1 26 Nov 01:49:55 01:54:10 53° 259° (W) 01:58:26 .
NANOSAT C BR1 26 Nov 01:58:14 02:01:35 24° 299° (WNW) 02:04:57 145.865
EO-79 26 Nov 01:58:35 02:01:50 22° 300° (WNW) 02:05:03 145.935-145.965
PCSat 26 Nov 02:08:51 02:13:39 31° 330° (NNW) 02:18:29 145.827
50 SAT 26 Nov 02:13:59 02:15:42 14° 269° (W) 02:17:26 437.505
POLYITAN 1 26 Nov 02:15:48 02:18:27 17° 304° (WNW) 02:21:07 437.675
BUGSAT 1 26 Nov 02:16:21 02:20:17 52° 291° (WNW) 02:24:11 437.445
AO-91 26 Nov 02:19:29 02:24:08 89° 114° (ESE) 02:28:13 145.960
